Year,Month,Day,Hour,Minute,Value (Times are PST for temperature in C)
2013,08,22,00,00,14.90
2013,08,22,00,01,14.90
2013,08,22,00,02,14.90
2013,08,22,00,03,14.90
2013,08,22,00,04,14.90
2013,08,22,00,05,14.90
2013,08,22,00,06,14.90
2013,08,22,00,07,14.90
2013,08,22,00,08,14.90
2013,08,22,00,09,14.80
2013,08,22,00,10,14.80
2013,08,22,00,11,14.80
2013,08,22,00,12,14.70
2013,08,22,00,13,14.70
2013,08,22,00,14,14.70
2013,08,22,00,15,14.70
2013,08,22,00,16,14.70
2013,08,22,00,17,14.70
2013,08,22,00,18,14.70
2013,08,22,00,19,14.70
2013,08,22,00,20,14.60
2013,08,22,00,21,14.60
2013,08,22,00,22,14.60
2013,08,22,00,23,14.50
2013,08,22,00,24,14.50
2013,08,22,00,25,14.40
2013,08,22,00,26,14.40
2013,08,22,00,27,14.50
2013,08,22,00,28,14.50
2013,08,22,00,29,14.60
2013,08,22,00,30,14.60
2013,08,22,00,31,14.60
2013,08,22,00,32,14.70
2013,08,22,00,33,14.70
2013,08,22,00,34,14.70
2013,08,22,00,35,14.70
2013,08,22,00,36,14.70
2013,08,22,00,37,14.70
2013,08,22,00,38,14.70
2013,08,22,00,39,14.70
2013,08,22,00,40,14.70
2013,08,22,00,41,14.70
2013,08,22,00,42,14.70
2013,08,22,00,43,14.70
2013,08,22,00,44,14.70
2013,08,22,00,45,14.70
2013,08,22,00,46,14.70
2013,08,22,00,47,14.70
2013,08,22,00,48,14.70
2013,08,22,00,49,14.80
2013,08,22,00,50,14.80
2013,08,22,00,51,14.70
2013,08,22,00,52,14.70
2013,08,22,00,53,14.70
2013,08,22,00,54,14.70
2013,08,22,00,55,14.70
2013,08,22,00,56,14.70
2013,08,22,00,57,14.80
2013,08,22,00,58,14.80
2013,08,22,00,59,14.80
2013,08,22,01,00,14.80
2013,08,22,01,01,14.80
2013,08,22,01,02,14.80
2013,08,22,01,03,14.80
2013,08,22,01,04,14.90
2013,08,22,01,05,15.00
2013,08,22,01,06,15.10
2013,08,22,01,07,15.10
2013,08,22,01,08,15.20
2013,08,22,01,09,15.20
2013,08,22,01,10,15.30
2013,08,22,01,11,15.30
2013,08,22,01,12,15.30
2013,08,22,01,13,15.40
2013,08,22,01,14,15.40
2013,08,22,01,15,15.40
2013,08,22,01,16,15.40
2013,08,22,01,17,15.40
2013,08,22,01,18,15.40
2013,08,22,01,19,15.40
2013,08,22,01,20,15.40
2013,08,22,01,21,15.40
2013,08,22,01,22,15.40
2013,08,22,01,23,15.40
2013,08,22,01,24,15.40
2013,08,22,01,25,15.40
2013,08,22,01,26,15.40
2013,08,22,01,27,15.40
2013,08,22,01,28,15.40
2013,08,22,01,29,15.40
2013,08,22,01,30,15.40
2013,08,22,01,31,15.50
2013,08,22,01,32,15.50
2013,08,22,01,33,15.60
2013,08,22,01,34,15.60
2013,08,22,01,35,15.70
2013,08,22,01,36,15.70
2013,08,22,01,37,15.70
2013,08,22,01,38,15.60
2013,08,22,01,39,15.60
2013,08,22,01,40,15.50
2013,08,22,01,41,15.50
2013,08,22,01,42,15.40
2013,08,22,01,43,15.30
2013,08,22,01,44,15.30
2013,08,22,01,45,15.30
2013,08,22,01,46,15.30
2013,08,22,01,47,15.30
2013,08,22,01,48,15.30
2013,08,22,01,49,15.20
2013,08,22,01,50,15.20
2013,08,22,01,51,15.10
2013,08,22,01,52,15.10
2013,08,22,01,53,15.10
2013,08,22,01,54,15.10
2013,08,22,01,55,15.10
2013,08,22,01,56,15.00
2013,08,22,01,57,15.00
2013,08,22,01,58,14.90
2013,08,22,01,59,14.90
2013,08,22,02,00,14.90
2013,08,22,02,01,14.90
2013,08,22,02,02,14.90
2013,08,22,02,03,14.90
2013,08,22,02,04,15.00
2013,08,22,02,05,15.00
2013,08,22,02,06,14.90
2013,08,22,02,07,14.90
2013,08,22,02,08,14.80
2013,08,22,02,09,14.80
2013,08,22,02,10,14.80
2013,08,22,02,11,14.70
2013,08,22,02,12,14.70
2013,08,22,02,13,14.70
2013,08,22,02,14,14.70
2013,08,22,02,15,14.70
2013,08,22,02,16,14.60
2013,08,22,02,17,14.60
2013,08,22,02,18,14.60
2013,08,22,02,19,14.60
2013,08,22,02,20,14.60
2013,08,22,02,21,14.70
2013,08,22,02,22,14.70
2013,08,22,02,23,14.70
2013,08,22,02,24,14.80
2013,08,22,02,25,14.80
2013,08,22,02,26,14.80
2013,08,22,02,27,14.80
2013,08,22,02,28,14.80
2013,08,22,02,29,14.80
2013,08,22,02,30,14.70
2013,08,22,02,31,14.70
2013,08,22,02,32,14.70
2013,08,22,02,33,14.70
2013,08,22,02,34,14.70
2013,08,22,02,35,14.70
2013,08,22,02,36,14.60
2013,08,22,02,37,14.60
2013,08,22,02,38,14.50
2013,08,22,02,39,14.50
2013,08,22,02,40,14.40
2013,08,22,02,41,14.30
2013,08,22,02,42,14.30
2013,08,22,02,43,14.20
2013,08,22,02,44,14.10
2013,08,22,02,45,14.10
2013,08,22,02,46,14.00
2013,08,22,02,47,14.00
2013,08,22,02,48,14.00
2013,08,22,02,49,14.00
2013,08,22,02,50,13.90
2013,08,22,02,51,13.90
2013,08,22,02,52,13.80
2013,08,22,02,53,13.80
2013,08,22,02,54,13.80
2013,08,22,02,55,13.70
2013,08,22,02,56,13.70
2013,08,22,02,57,13.70
2013,08,22,02,58,13.70
2013,08,22,02,59,13.70
2013,08,22,03,00,13.80
2013,08,22,03,01,13.80
2013,08,22,03,02,13.80
2013,08,22,03,03,13.80
2013,08,22,03,04,13.80
2013,08,22,03,05,13.80
2013,08,22,03,06,13.90
2013,08,22,03,07,14.00
2013,08,22,03,08,14.00
2013,08,22,03,09,14.00
2013,08,22,03,10,14.00
2013,08,22,03,11,14.00
2013,08,22,03,12,13.90
2013,08,22,03,13,13.80
2013,08,22,03,14,13.80
2013,08,22,03,15,13.70
2013,08,22,03,16,13.70
2013,08,22,03,17,13.70
2013,08,22,03,18,13.70
2013,08,22,03,19,13.70
2013,08,22,03,20,13.60
2013,08,22,03,21,13.60
2013,08,22,03,22,13.70
2013,08,22,03,23,13.70
2013,08,22,03,24,13.70
2013,08,22,03,25,13.70
2013,08,22,03,26,13.70
2013,08,22,03,27,13.70
2013,08,22,03,28,13.60
2013,08,22,03,29,13.60
2013,08,22,03,30,13.60
2013,08,22,03,31,13.60
2013,08,22,03,32,13.60
2013,08,22,03,33,13.50
2013,08,22,03,34,13.50
2013,08,22,03,35,13.40
2013,08,22,03,36,13.40
2013,08,22,03,37,13.40
2013,08,22,03,38,13.30
2013,08,22,03,39,13.30
2013,08,22,03,40,13.30
2013,08,22,03,41,13.30
2013,08,22,03,42,13.30
2013,08,22,03,43,13.30
2013,08,22,03,44,13.30
2013,08,22,03,45,13.40
2013,08,22,03,46,13.40
2013,08,22,03,47,13.30
2013,08,22,03,48,13.30
2013,08,22,03,49,13.30
2013,08,22,03,50,13.30
2013,08,22,03,51,13.30
2013,08,22,03,52,13.30
2013,08,22,03,53,13.30
2013,08,22,03,54,13.40
2013,08,22,03,55,13.40
2013,08,22,03,56,13.40
2013,08,22,03,57,13.40
2013,08,22,03,58,13.50
2013,08,22,03,59,13.50
2013,08,22,04,00,13.60
2013,08,22,04,01,13.60
2013,08,22,04,02,13.60
2013,08,22,04,03,13.60
2013,08,22,04,04,13.60
2013,08,22,04,05,13.60
2013,08,22,04,06,13.60
2013,08,22,04,07,13.70
2013,08,22,04,08,13.70
2013,08,22,04,09,13.70
2013,08,22,04,10,13.70
2013,08,22,04,11,13.70
2013,08,22,04,12,13.70
2013,08,22,04,13,13.60
2013,08,22,04,14,13.60
2013,08,22,04,15,13.60
2013,08,22,04,16,13.60
2013,08,22,04,17,13.50
2013,08,22,04,18,13.40
2013,08,22,04,19,13.40
2013,08,22,04,20,13.30
2013,08,22,04,21,13.20
2013,08,22,04,22,13.20
2013,08,22,04,23,13.20
2013,08,22,04,24,13.20
2013,08,22,04,25,13.20
2013,08,22,04,26,13.10
2013,08,22,04,27,13.10
2013,08,22,04,28,13.10
2013,08,22,04,29,13.10
2013,08,22,04,30,13.10
2013,08,22,04,31,13.00
2013,08,22,04,32,13.00
2013,08,22,04,33,13.00
2013,08,22,04,34,12.90
2013,08,22,04,35,12.90
2013,08,22,04,36,12.90
2013,08,22,04,37,13.00
2013,08,22,04,38,13.00
2013,08,22,04,39,13.00
2013,08,22,04,40,13.00
2013,08,22,04,41,13.00
2013,08,22,04,42,13.10
2013,08,22,04,43,13.10
2013,08,22,04,44,13.10
2013,08,22,04,45,13.20
2013,08,22,04,46,13.20
2013,08,22,04,47,13.20
2013,08,22,04,48,13.20
2013,08,22,04,49,13.20
2013,08,22,04,50,13.20
2013,08,22,04,51,13.30
2013,08,22,04,52,13.30
2013,08,22,04,53,13.30
2013,08,22,04,54,13.30
2013,08,22,04,55,13.40
2013,08,22,04,56,13.40
2013,08,22,04,57,13.40
2013,08,22,04,58,13.50
2013,08,22,04,59,13.50
2013,08,22,05,00,13.50
2013,08,22,05,01,13.50
2013,08,22,05,02,13.50
2013,08,22,05,03,13.50
2013,08,22,05,04,13.50
2013,08,22,05,05,13.60
2013,08,22,05,06,13.60
2013,08,22,05,07,13.60
2013,08,22,05,08,13.60
2013,08,22,05,09,13.60
2013,08,22,05,10,13.50
2013,08,22,05,11,13.50
2013,08,22,05,12,13.60
2013,08,22,05,13,13.60
2013,08,22,05,14,13.60
2013,08,22,05,15,13.60
2013,08,22,05,16,13.60
2013,08,22,05,17,13.60
2013,08,22,05,18,13.60
2013,08,22,05,19,13.50
2013,08,22,05,20,13.60
2013,08,22,05,21,13.60
2013,08,22,05,22,13.60
2013,08,22,05,23,13.60
2013,08,22,05,24,13.60
2013,08,22,05,25,13.60
2013,08,22,05,26,13.60
2013,08,22,05,27,13.60
2013,08,22,05,28,13.60
2013,08,22,05,29,13.60
2013,08,22,05,30,13.60
2013,08,22,05,31,13.70
2013,08,22,05,32,13.70
2013,08,22,05,33,13.70
2013,08,22,05,34,13.80
2013,08,22,05,35,13.80
2013,08,22,05,36,13.80
2013,08,22,05,37,13.80
2013,08,22,05,38,13.80
2013,08,22,05,39,13.80
2013,08,22,05,40,13.80
2013,08,22,05,41,13.80
2013,08,22,05,42,13.70
2013,08,22,05,43,13.70
2013,08,22,05,44,13.70
2013,08,22,05,45,13.60
2013,08,22,05,46,13.60
2013,08,22,05,47,13.60
2013,08,22,05,48,13.60
2013,08,22,05,49,13.60
2013,08,22,05,50,13.60
2013,08,22,05,51,13.60
2013,08,22,05,52,13.60
2013,08,22,05,53,13.60
2013,08,22,05,54,13.60
2013,08,22,05,55,13.60
2013,08,22,05,56,13.60
2013,08,22,05,57,13.60
2013,08,22,05,58,13.60
2013,08,22,05,59,13.60
2013,08,22,06,00,13.60
2013,08,22,06,01,13.50
2013,08,22,06,02,13.50
2013,08,22,06,03,13.50
2013,08,22,06,04,13.40
2013,08,22,06,05,13.40
2013,08,22,06,06,13.40
2013,08,22,06,07,13.30
2013,08,22,06,08,13.30
2013,08,22,06,09,13.30
2013,08,22,06,10,13.30
2013,08,22,06,11,13.30
2013,08,22,06,12,13.30
2013,08,22,06,13,13.30
2013,08,22,06,14,13.30
2013,08,22,06,15,13.30
2013,08,22,06,16,13.40
2013,08,22,06,17,13.40
2013,08,22,06,18,13.40
2013,08,22,06,19,13.40
2013,08,22,06,20,13.40
2013,08,22,06,21,13.40
2013,08,22,06,22,13.40
2013,08,22,06,23,13.40
2013,08,22,06,24,13.40
2013,08,22,06,25,13.40
2013,08,22,06,26,13.40
2013,08,22,06,27,13.30
2013,08,22,06,28,13.30
2013,08,22,06,29,13.30
2013,08,22,06,30,13.30
2013,08,22,06,31,13.30
2013,08,22,06,32,13.30
2013,08,22,06,33,13.30
2013,08,22,06,34,13.30
2013,08,22,06,35,13.30
2013,08,22,06,36,13.30
2013,08,22,06,37,13.40
2013,08,22,06,38,13.40
2013,08,22,06,39,13.40
2013,08,22,06,40,13.40
2013,08,22,06,41,13.40
2013,08,22,06,42,13.50
2013,08,22,06,43,13.50
2013,08,22,06,44,13.60
2013,08,22,06,45,13.60
2013,08,22,06,46,13.50
2013,08,22,06,47,13.50
2013,08,22,06,48,13.50
2013,08,22,06,49,13.40
2013,08,22,06,50,13.40
2013,08,22,06,51,13.40
2013,08,22,06,52,13.40
2013,08,22,06,53,13.50
2013,08,22,06,54,13.60
2013,08,22,06,55,13.60
2013,08,22,06,56,13.70
2013,08,22,06,57,13.80
2013,08,22,06,58,13.80
2013,08,22,06,59,13.90
2013,08,22,07,00,13.90
2013,08,22,07,01,13.90
2013,08,22,07,02,14.00
2013,08,22,07,03,14.00
2013,08,22,07,04,14.10
2013,08,22,07,05,14.10
2013,08,22,07,06,14.10
2013,08,22,07,07,14.10
2013,08,22,07,08,14.20
2013,08,22,07,09,14.20
2013,08,22,07,10,14.20
2013,08,22,07,11,14.20
2013,08,22,07,12,14.20
2013,08,22,07,13,14.20
2013,08,22,07,14,14.20
2013,08,22,07,15,14.20
2013,08,22,07,16,14.20
2013,08,22,07,17,14.20
2013,08,22,07,18,14.20
2013,08,22,07,19,14.30
2013,08,22,07,20,14.30
2013,08,22,07,21,14.30
2013,08,22,07,22,14.40
2013,08,22,07,23,14.40
2013,08,22,07,24,14.40
2013,08,22,07,25,14.50
2013,08,22,07,26,14.50
2013,08,22,07,27,14.60
2013,08,22,07,28,14.60
2013,08,22,07,29,14.70
2013,08,22,07,30,14.70
2013,08,22,07,31,14.80
2013,08,22,07,32,14.80
2013,08,22,07,33,14.80
2013,08,22,07,34,14.90
2013,08,22,07,35,14.90
2013,08,22,07,36,14.90
2013,08,22,07,37,14.90
2013,08,22,07,38,15.00
2013,08,22,07,39,15.00
2013,08,22,07,40,15.00
2013,08,22,07,41,15.10
2013,08,22,07,42,15.10
2013,08,22,07,43,15.10
2013,08,22,07,44,15.20
2013,08,22,07,45,15.20
2013,08,22,07,46,15.30
2013,08,22,07,47,15.30
2013,08,22,07,48,15.30
2013,08,22,07,49,15.40
2013,08,22,07,50,15.40
2013,08,22,07,51,15.50
2013,08,22,07,52,15.60
2013,08,22,07,53,15.60
2013,08,22,07,54,15.60
2013,08,22,07,55,15.70
2013,08,22,07,56,15.70
2013,08,22,07,57,15.70
2013,08,22,07,58,15.70
2013,08,22,07,59,15.70
2013,08,22,08,00,15.70
2013,08,22,08,01,15.70
2013,08,22,08,02,15.70
2013,08,22,08,03,15.70
2013,08,22,08,04,15.80
2013,08,22,08,05,15.80
2013,08,22,08,06,15.80
2013,08,22,08,07,15.80
2013,08,22,08,08,15.80
2013,08,22,08,09,15.90
2013,08,22,08,10,15.90
2013,08,22,08,11,15.90
2013,08,22,08,12,16.00
2013,08,22,08,13,16.00
2013,08,22,08,14,16.10
2013,08,22,08,15,16.10
2013,08,22,08,16,16.10
2013,08,22,08,17,16.20
2013,08,22,08,18,16.20
2013,08,22,08,19,16.20
2013,08,22,08,20,16.30
2013,08,22,08,21,16.30
2013,08,22,08,22,16.40
2013,08,22,08,23,16.40
2013,08,22,08,24,16.50
2013,08,22,08,25,16.60
2013,08,22,08,26,16.60
2013,08,22,08,27,16.70
2013,08,22,08,28,16.70
2013,08,22,08,29,16.80
2013,08,22,08,30,16.90
2013,08,22,08,31,16.90
2013,08,22,08,32,16.90
2013,08,22,08,33,17.00
2013,08,22,08,34,17.10
2013,08,22,08,35,17.10
2013,08,22,08,36,17.20
2013,08,22,08,37,17.20
2013,08,22,08,38,17.30
2013,08,22,08,39,17.30
2013,08,22,08,40,17.40
2013,08,22,08,41,17.40
2013,08,22,08,42,17.50
2013,08,22,08,43,17.60
2013,08,22,08,44,17.60
2013,08,22,08,45,17.70
2013,08,22,08,46,17.80
2013,08,22,08,47,17.80
2013,08,22,08,48,17.90
2013,08,22,08,49,18.00
2013,08,22,08,50,18.00
2013,08,22,08,51,18.10
2013,08,22,08,52,18.20
2013,08,22,08,53,18.20
2013,08,22,08,54,18.30
2013,08,22,08,55,18.40
2013,08,22,08,56,18.40
2013,08,22,08,57,18.50
2013,08,22,08,58,18.60
2013,08,22,08,59,18.70
2013,08,22,09,00,18.80
2013,08,22,09,01,18.90
2013,08,22,09,02,19.00
2013,08,22,09,03,19.20
2013,08,22,09,04,19.30
2013,08,22,09,05,19.40
2013,08,22,09,06,19.60
2013,08,22,09,07,19.60
2013,08,22,09,08,19.70
2013,08,22,09,09,19.80
2013,08,22,09,10,19.80
2013,08,22,09,11,19.90
2013,08,22,09,12,19.90
2013,08,22,09,13,20.00
2013,08,22,09,14,20.00
2013,08,22,09,15,20.10
2013,08,22,09,16,20.10
2013,08,22,09,17,20.10
2013,08,22,09,18,20.20
2013,08,22,09,19,20.20
2013,08,22,09,20,20.20
2013,08,22,09,21,20.20
2013,08,22,09,22,20.30
2013,08,22,09,23,20.30
2013,08,22,09,24,20.50
2013,08,22,09,25,20.60
2013,08,22,09,26,20.70
2013,08,22,09,27,20.80
2013,08,22,09,28,20.90
2013,08,22,09,29,21.00
2013,08,22,09,30,21.10
2013,08,22,09,31,21.20
2013,08,22,09,32,21.20
2013,08,22,09,33,21.20
2013,08,22,09,34,21.30
2013,08,22,09,35,21.30
2013,08,22,09,36,21.30
2013,08,22,09,37,21.40
2013,08,22,09,38,21.50
2013,08,22,09,39,21.50
2013,08,22,09,40,21.60
2013,08,22,09,41,21.60
2013,08,22,09,42,21.50
2013,08,22,09,43,21.50
2013,08,22,09,44,21.40
2013,08,22,09,45,21.40
2013,08,22,09,46,21.50
2013,08,22,09,47,21.40
2013,08,22,09,48,21.40
2013,08,22,09,49,21.40
2013,08,22,09,50,21.40
2013,08,22,09,51,21.50
2013,08,22,09,52,21.50
2013,08,22,09,53,21.50
2013,08,22,09,54,21.50
2013,08,22,09,55,21.50
2013,08,22,09,56,21.50
2013,08,22,09,57,21.60
2013,08,22,09,58,21.70
2013,08,22,09,59,21.80
2013,08,22,10,00,21.80
2013,08,22,10,01,21.80
2013,08,22,10,02,21.90
2013,08,22,10,03,21.90
2013,08,22,10,04,22.00
2013,08,22,10,05,22.10
2013,08,22,10,06,22.10
2013,08,22,10,07,22.20
2013,08,22,10,08,22.30
2013,08,22,10,09,22.30
2013,08,22,10,10,22.30
2013,08,22,10,11,22.40
2013,08,22,10,12,22.40
2013,08,22,10,13,22.30
2013,08,22,10,14,22.30
2013,08,22,10,15,22.30
2013,08,22,10,16,22.30
2013,08,22,10,17,22.30
2013,08,22,10,18,22.30
2013,08,22,10,19,22.30
2013,08,22,10,20,22.20
2013,08,22,10,21,22.20
2013,08,22,10,22,22.20
2013,08,22,10,23,22.20
2013,08,22,10,24,22.20
2013,08,22,10,25,22.20
2013,08,22,10,26,22.20
2013,08,22,10,27,22.20
2013,08,22,10,28,22.30
2013,08,22,10,29,22.30
2013,08,22,10,30,22.40
2013,08,22,10,31,22.40
2013,08,22,10,32,22.40
2013,08,22,10,33,22.40
2013,08,22,10,34,22.40
2013,08,22,10,35,22.40
2013,08,22,10,36,22.40
2013,08,22,10,37,22.30
2013,08,22,10,38,22.20
2013,08,22,10,39,22.10
2013,08,22,10,40,22.10
2013,08,22,10,41,22.10
2013,08,22,10,42,22.10
2013,08,22,10,43,22.00
2013,08,22,10,44,22.00
2013,08,22,10,45,21.90
2013,08,22,10,46,21.90
2013,08,22,10,47,21.90
2013,08,22,10,48,21.90
2013,08,22,10,49,21.90
2013,08,22,10,50,21.90
2013,08,22,10,51,22.00
2013,08,22,10,52,22.00
2013,08,22,10,53,22.10
2013,08,22,10,54,22.10
2013,08,22,10,55,22.10
2013,08,22,10,56,22.10
2013,08,22,10,57,22.10
2013,08,22,10,58,22.10
2013,08,22,10,59,22.10
2013,08,22,11,00,22.20
2013,08,22,11,01,22.30
2013,08,22,11,02,22.40
2013,08,22,11,03,22.50
2013,08,22,11,04,22.60
2013,08,22,11,05,22.70
2013,08,22,11,06,22.80
2013,08,22,11,07,22.80
2013,08,22,11,08,22.80
2013,08,22,11,09,22.90
2013,08,22,11,10,23.00
2013,08,22,11,11,23.00
2013,08,22,11,12,23.10
2013,08,22,11,13,23.10
2013,08,22,11,14,23.10
2013,08,22,11,15,23.10
2013,08,22,11,16,23.20
2013,08,22,11,17,23.20
2013,08,22,11,18,23.20
2013,08,22,11,19,23.20
2013,08,22,11,20,23.30
2013,08,22,11,21,23.30
2013,08,22,11,22,23.20
2013,08,22,11,23,23.20
2013,08,22,11,24,23.10
2013,08,22,11,25,23.10
2013,08,22,11,26,23.10
2013,08,22,11,27,23.00
2013,08,22,11,28,23.00
2013,08,22,11,29,23.00
2013,08,22,11,30,23.00
2013,08,22,11,31,23.10
2013,08,22,11,32,23.20
2013,08,22,11,33,23.30
2013,08,22,11,34,23.30
2013,08,22,11,35,23.30
2013,08,22,11,36,23.30
2013,08,22,11,37,23.40
2013,08,22,11,38,23.50
2013,08,22,11,39,23.60
2013,08,22,11,40,23.60
2013,08,22,11,41,23.60
2013,08,22,11,42,23.60
2013,08,22,11,43,23.60
2013,08,22,11,44,23.60
2013,08,22,11,45,23.70
2013,08,22,11,46,23.80
2013,08,22,11,47,23.90
2013,08,22,11,48,23.90
2013,08,22,11,49,23.90
2013,08,22,11,50,23.90
2013,08,22,11,51,23.80
2013,08,22,11,52,23.80
2013,08,22,11,53,23.80
2013,08,22,11,54,23.80
2013,08,22,11,55,23.80
2013,08,22,11,56,23.80
2013,08,22,11,57,23.80
2013,08,22,11,58,23.80
2013,08,22,11,59,23.80
2013,08,22,12,00,23.80
2013,08,22,12,01,23.70
2013,08,22,12,02,23.70
2013,08,22,12,03,23.60
2013,08,22,12,04,23.60
2013,08,22,12,05,23.60
2013,08,22,12,06,23.60
2013,08,22,12,07,23.70
2013,08,22,12,08,23.70
2013,08,22,12,09,23.60
2013,08,22,12,10,23.60
2013,08,22,12,11,23.60
2013,08,22,12,12,23.70
2013,08,22,12,13,23.70
2013,08,22,12,14,23.70
2013,08,22,12,15,23.80
2013,08,22,12,16,23.80
2013,08,22,12,17,23.80
2013,08,22,12,18,23.70
2013,08,22,12,19,23.80
2013,08,22,12,20,23.80
2013,08,22,12,21,23.80
2013,08,22,12,22,23.90
2013,08,22,12,23,23.90
2013,08,22,12,24,24.00
2013,08,22,12,25,24.00
2013,08,22,12,26,24.00
2013,08,22,12,27,23.90
2013,08,22,12,28,23.80
2013,08,22,12,29,23.80
2013,08,22,12,30,23.80
2013,08,22,12,31,23.80
2013,08,22,12,32,23.90
2013,08,22,12,33,24.00
2013,08,22,12,34,24.10
2013,08,22,12,35,24.20
2013,08,22,12,36,24.20
2013,08,22,12,37,24.30
2013,08,22,12,38,24.30
2013,08,22,12,39,24.30
2013,08,22,12,40,24.40
2013,08,22,12,41,24.40
2013,08,22,12,42,24.30
2013,08,22,12,43,24.30
2013,08,22,12,44,24.30
2013,08,22,12,45,24.30
2013,08,22,12,46,24.30
2013,08,22,12,47,24.40
2013,08,22,12,48,24.40
2013,08,22,12,49,24.40
2013,08,22,12,50,24.40
2013,08,22,12,51,24.40
2013,08,22,12,52,24.40
2013,08,22,12,53,24.40
2013,08,22,12,54,24.50
2013,08,22,12,55,24.60
2013,08,22,12,56,24.50
2013,08,22,12,57,24.60
2013,08,22,12,58,24.60
2013,08,22,12,59,24.60
2013,08,22,13,00,24.60
2013,08,22,13,01,24.70
2013,08,22,13,02,24.70
2013,08,22,13,03,24.80
2013,08,22,13,04,24.80
2013,08,22,13,05,24.80
2013,08,22,13,06,24.80
2013,08,22,13,07,24.80
2013,08,22,13,08,24.80
2013,08,22,13,09,24.80
2013,08,22,13,10,24.80
2013,08,22,13,11,24.70
2013,08,22,13,12,24.70
2013,08,22,13,13,24.70
2013,08,22,13,14,24.70
2013,08,22,13,15,24.80
2013,08,22,13,16,24.90
2013,08,22,13,17,25.00
2013,08,22,13,18,25.00
2013,08,22,13,19,25.10
2013,08,22,13,20,25.10
2013,08,22,13,21,25.00
2013,08,22,13,22,24.90
2013,08,22,13,23,24.90
2013,08,22,13,24,24.80
2013,08,22,13,25,24.80
2013,08,22,13,26,24.80
2013,08,22,13,27,24.80
2013,08,22,13,28,24.80
2013,08,22,13,29,24.90
2013,08,22,13,30,24.90
2013,08,22,13,31,25.00
2013,08,22,13,32,25.00
2013,08,22,13,33,25.10
2013,08,22,13,34,25.10
2013,08,22,13,35,25.20
2013,08,22,13,36,25.20
2013,08,22,13,37,25.40
2013,08,22,13,38,25.50
2013,08,22,13,39,25.60
2013,08,22,13,40,25.70
2013,08,22,13,41,25.80
2013,08,22,13,42,25.70
2013,08,22,13,43,25.70
2013,08,22,13,44,25.70
2013,08,22,13,45,25.60
2013,08,22,13,46,25.60
2013,08,22,13,47,25.60
2013,08,22,13,48,25.60
2013,08,22,13,49,25.60
2013,08,22,13,50,25.60
2013,08,22,13,51,25.60
2013,08,22,13,52,25.70
2013,08,22,13,53,25.70
2013,08,22,13,54,25.70
2013,08,22,13,55,25.70
2013,08,22,13,56,25.80
2013,08,22,13,57,25.70
2013,08,22,13,58,25.80
2013,08,22,13,59,25.80
2013,08,22,14,00,25.90
2013,08,22,14,01,25.90
2013,08,22,14,02,26.00
2013,08,22,14,03,26.10
2013,08,22,14,04,26.10
2013,08,22,14,05,26.10
2013,08,22,14,06,26.10
2013,08,22,14,07,26.20
2013,08,22,14,08,26.20
2013,08,22,14,09,26.30
2013,08,22,14,10,26.30
2013,08,22,14,11,26.30
2013,08,22,14,12,26.30
2013,08,22,14,13,26.30
2013,08,22,14,14,26.30
2013,08,22,14,15,26.40
2013,08,22,14,16,26.50
2013,08,22,14,17,26.60
2013,08,22,14,18,26.70
2013,08,22,14,19,26.80
2013,08,22,14,20,26.90
2013,08,22,14,21,26.90
2013,08,22,14,22,27.00
2013,08,22,14,23,27.00
2013,08,22,14,24,27.10
2013,08,22,14,25,27.10
2013,08,22,14,26,27.20
2013,08,22,14,27,27.20
2013,08,22,14,28,27.20
2013,08,22,14,29,27.20
2013,08,22,14,30,27.10
2013,08,22,14,31,27.10
2013,08,22,14,32,27.10
2013,08,22,14,33,27.10
2013,08,22,14,34,27.20
2013,08,22,14,35,27.10
2013,08,22,14,36,27.10
2013,08,22,14,37,27.00
2013,08,22,14,38,26.90
2013,08,22,14,39,26.80
2013,08,22,14,40,26.80
2013,08,22,14,41,26.80
2013,08,22,14,42,26.70
2013,08,22,14,43,26.70
2013,08,22,14,44,26.80
2013,08,22,14,45,26.80
2013,08,22,14,46,26.80
2013,08,22,14,47,26.80
2013,08,22,14,48,26.70
2013,08,22,14,49,26.70
2013,08,22,14,50,26.70
2013,08,22,14,51,26.70
2013,08,22,14,52,26.70
2013,08,22,14,53,26.70
2013,08,22,14,54,26.70
2013,08,22,14,55,26.70
2013,08,22,14,56,26.70
2013,08,22,14,57,26.70
2013,08,22,14,58,26.70
2013,08,22,14,59,26.70
2013,08,22,15,00,26.70
2013,08,22,15,01,26.70
2013,08,22,15,02,26.70
2013,08,22,15,03,26.80
2013,08,22,15,04,26.90
2013,08,22,15,05,26.90
2013,08,22,15,06,27.00
2013,08,22,15,07,26.90
2013,08,22,15,08,26.90
2013,08,22,15,09,26.80
2013,08,22,15,10,26.80
2013,08,22,15,11,26.70
2013,08,22,15,12,26.60
2013,08,22,15,13,26.60
2013,08,22,15,14,26.60
2013,08,22,15,15,26.60
2013,08,22,15,16,26.60
2013,08,22,15,17,26.50
2013,08,22,15,18,26.50
2013,08,22,15,19,26.40
2013,08,22,15,20,26.40
2013,08,22,15,21,26.30
2013,08,22,15,22,26.30
2013,08,22,15,23,26.20
2013,08,22,15,24,26.20
2013,08,22,15,25,26.20
2013,08,22,15,26,26.10
2013,08,22,15,27,26.00
2013,08,22,15,28,26.00
2013,08,22,15,29,25.90
2013,08,22,15,30,25.90
2013,08,22,15,31,25.80
2013,08,22,15,32,25.80
2013,08,22,15,33,25.80
2013,08,22,15,34,25.80
2013,08,22,15,35,25.80
2013,08,22,15,36,25.70
2013,08,22,15,37,25.70
2013,08,22,15,38,25.70
2013,08,22,15,39,25.70
2013,08,22,15,40,25.70
2013,08,22,15,41,25.70
2013,08,22,15,42,25.70
2013,08,22,15,43,25.70
2013,08,22,15,44,25.70
2013,08,22,15,45,25.70
2013,08,22,15,46,25.70
2013,08,22,15,47,25.70
2013,08,22,15,48,25.60
2013,08,22,15,49,25.60
2013,08,22,15,50,25.50
2013,08,22,15,51,25.50
2013,08,22,15,52,25.50
2013,08,22,15,53,25.50
2013,08,22,15,54,25.50
2013,08,22,15,55,25.50
2013,08,22,15,56,25.40
2013,08,22,15,57,25.40
2013,08,22,15,58,25.40
2013,08,22,15,59,25.40
2013,08,22,16,00,25.50
2013,08,22,16,01,25.50
2013,08,22,16,02,25.50
2013,08,22,16,03,25.50
2013,08,22,16,04,25.50
2013,08,22,16,05,25.50
2013,08,22,16,06,25.50
2013,08,22,16,07,25.50
2013,08,22,16,08,25.50
2013,08,22,16,09,25.50
2013,08,22,16,10,25.60
2013,08,22,16,11,25.70
2013,08,22,16,12,25.70
2013,08,22,16,13,25.70
2013,08,22,16,14,25.70
2013,08,22,16,15,25.80
2013,08,22,16,16,25.80
2013,08,22,16,17,25.70
2013,08,22,16,18,25.70
2013,08,22,16,19,25.70
2013,08,22,16,20,25.80
2013,08,22,16,21,25.90
2013,08,22,16,22,25.90
2013,08,22,16,23,25.90
2013,08,22,16,24,26.00
2013,08,22,16,25,26.00
2013,08,22,16,26,25.90
2013,08,22,16,27,26.00
2013,08,22,16,28,26.00
2013,08,22,16,29,26.00
2013,08,22,16,30,25.90
2013,08,22,16,31,25.90
2013,08,22,16,32,26.00
2013,08,22,16,33,26.00
2013,08,22,16,34,26.10
2013,08,22,16,35,26.10
2013,08,22,16,36,26.20
2013,08,22,16,37,26.20
2013,08,22,16,38,26.30
2013,08,22,16,39,26.30
2013,08,22,16,40,26.40
2013,08,22,16,41,26.50
2013,08,22,16,42,26.50
2013,08,22,16,43,26.60
2013,08,22,16,44,26.70
2013,08,22,16,45,26.80
2013,08,22,16,46,26.80
2013,08,22,16,47,26.90
2013,08,22,16,48,26.90
2013,08,22,16,49,27.00
2013,08,22,16,50,26.90
2013,08,22,16,51,26.90
2013,08,22,16,52,26.90
2013,08,22,16,53,26.80
2013,08,22,16,54,26.90
2013,08,22,16,55,26.90
2013,08,22,16,56,26.90
2013,08,22,16,57,26.80
2013,08,22,16,58,26.80
2013,08,22,16,59,26.70
2013,08,22,17,00,26.70
2013,08,22,17,01,26.70
2013,08,22,17,02,26.70
2013,08,22,17,03,26.70
2013,08,22,17,04,26.80
2013,08,22,17,05,26.90
2013,08,22,17,06,26.90
2013,08,22,17,07,26.90
2013,08,22,17,08,26.90
2013,08,22,17,09,26.80
2013,08,22,17,10,26.80
2013,08,22,17,11,26.70
2013,08,22,17,12,26.70
2013,08,22,17,13,26.60
2013,08,22,17,14,26.50
2013,08,22,17,15,26.40
2013,08,22,17,16,26.30
2013,08,22,17,17,26.20
2013,08,22,17,18,26.10
2013,08,22,17,19,26.00